Regional Weather Roundup
Issued by NWS

Home | Current Version | Previous Version | Graphics & Text | Print | Product List | Glossary On
Versions: 1 2 3 4 5 6 7 8 9 10 11 12 13 14 15 16 17 18 19 20 21 22 23 24 25 26 27 28 29 30 31 32 33 34 35 36 37 38 39 40 41 42 43 44 45 46 47 48 49 50
581
ASUS45 KCYS 280710
RWRWY

WYOMING REGIONAL WEATHER ROUNDUP
NATIONAL WEATHER SERVICE CHEYENNE WY
100 AM MDT THU JUL 28 2016

NOTE:  "FAIR" INDICATES FEW OR NO CLOUDS BELOW 12,000 FEET
WITH NO SIGNIFICANT WEATHER AND/OR OBSTRUCTIONS TO VISIBILITY.

WYZ001-280800-
YELLOWSTONE NATIONAL PARK

CITY           SKY/WX    TMP DP  RH WIND       PRES   REMARKS
LK YELLOWSTONE   N/A     53  46  77 NW3       30.44R
W YELLOWSTONE  NOT AVBL

$$
WYZ002>013-054>058-071-098>099-280800-
NORTHERN WYOMING

CITY           SKY/WX    TMP DP  RH WIND       PRES   REMARKS
JACKSON        FAIR      57  30  35 N10       30.25R
CODY           FAIR      68  48  49 N8        30.20F
GREYBULL         N/A     76  50  40 NW15      30.08R
WORLAND        FAIR      67  53  61 SW6       30.12R
SHERIDAN       FAIR      63  55  75 N7        30.17R
BUFFALO        FAIR      64  54  69 CALM      30.23R
GILLETTE       TSTM      62  62 100 NW7       30.23R FOG
HULETT         FAIR      64  54  68 S9        30.17F
NEWCASTLE      LGT RAIN  61  55  82 SE8       30.20S

$$
WYZ014>020-022>026-101>103-280800-
CENTRAL WYOMING

CITY           SKY/WX    TMP DP  RH WIND       PRES   REMARKS
BIG PINEY      FAIR      52  28  39 CALM      30.29F
PINEDALE       FAIR      48  34  57 W3        30.31S
DUBOIS         FAIR      57  28  33 W15       30.30S
LANDER         FAIR      68  42  38 W8        30.21R
RIVERTON       FAIR      70  49  47 E8        30.20F
CASPER         FAIR      61  54  77 N5        30.18R
DOUGLAS          N/A    N/A N/A N/A MISG      30.18F

$$
WYZ021-027>030-104>119-280800-
SOUTHERN WYOMING

CITY           SKY/WX    TMP DP  RH WIND       PRES   REMARKS
EVANSTON       FAIR      64  25  22 S8        30.30S
KEMMERER         N/A     59  28  31 NW9       30.31S
FORT BRIDGER   FAIR      64  22  20 S9        30.31F
ROCK SPRINGS   FAIR      66  20  17 S7        30.26S
DIXON          FAIR      56  30  38 NE7       30.26S
RAWLINS        FAIR      64  45  49 NE10      30.23F
SARATOGA       FAIR      59  28  31 CALM      30.26R
LARAMIE        FAIR      63  52  67 SE20G29   30.29F
CHEYENNE       FAIR      63  57  81 SE10      30.28F
TORRINGTON     FAIR      64  61  90 CALM      30.15F
PINE BLUFFS    FAIR      61  55  82 SE20G25   30.23F

$$




USA.gov is the U.S. government's official web portal to all federal, state and local government web resources and services.